| time (UTC) | temp F | wind direction | speed knots | gust knots | rain 1hr in | rain 24hr in | rain mn in | humidity % | barometer mb |
| 20260906121512 | 60 | 20 | 1.7 | 3.5 | 0.00 | 0.03 | 0.00 | 87 | 1020.5 |
| 20260906120022 | 60 | 40 | 0.0 | 5.2 | 0.00 | 0.03 | 0.00 | 88 | 1020.3 |
| 20260906114541 | 59 | 74 | 0.9 | 3.5 | 0.00 | 0.03 | 0.00 | 89 | 1020.1 |
| 20260906113019 | 59 | 32 | 0.9 | 3.5 | 0.00 | 0.03 | 0.00 | 89 | 1020.0 |
| 20260906111529 | 59 | 30 | 0.9 | 2.6 | 0.00 | 0.03 | 0.00 | 89 | 1019.7 |
| 20260906110012 | 59 | 26 | 0.9 | 3.5 | 0.00 | 0.03 | 0.00 | 90 | 1019.7 |
| 20260906104521 | 59 | 84 | 0.9 | 6.1 | 0.00 | 0.03 | 0.00 | 90 | 1019.8 |
| 20260906103028 | 60 | 16 | 0.9 | 5.2 | 0.00 | 0.03 | 0.00 | 89 | 1019.6 |
| 20260906101514 | 60 | 49 | 0.9 | 5.2 | 0.00 | 0.03 | 0.00 | 89 | 1019.6 |
| 20260906100031 | 60 | 21 | 0.0 | 4.3 | 0.00 | 0.03 | 0.00 | 89 | 1019.6 |
| 20260906094537 | 60 | 54 | 0.9 | 4.3 | 0.00 | 0.03 | 0.00 | 89 | 1019.5 |
| 20260906093019 | 60 | 45 | 1.7 | 4.3 | 0.00 | 0.03 | 0.00 | 89 | 1019.5 |
| 20260906091534 | 60 | 102 | 0.9 | 4.3 | 0.00 | 0.03 | 0.00 | 89 | 1019.4 |
| 20260906090037 | 61 | 104 | 0.0 | 3.5 | 0.00 | 0.03 | 0.00 | 88 | 1019.4 |
| 20260906084529 | 61 | 36 | 1.7 | 4.3 | 0.00 | 0.03 | 0.00 | 88 | 1019.4 |
| 20260906083032 | 61 | 67 | 0.0 | 1.7 | 0.00 | 0.03 | 0.00 | 88 | 1019.2 |
| 20260906081513 | 61 | 77 | 0.0 | 2.6 | 0.00 | 0.03 | 0.00 | 87 | 1018.8 |
| 20260906080028 | 62 | 30 | 0.0 | 4.3 | 0.00 | 0.03 | 0.00 | 86 | 1018.7 |
| 20260906074533 | 62 | 123 | 0.0 | 2.6 | 0.00 | 0.03 | 0.00 | 86 | 1018.5 |
| 20260906073019 | 62 | 5 | 0.0 | 2.6 | 0.00 | 0.03 | 0.00 | 86 | 1018.6 |
| 20260906071533 | 62 | 52 | 0.0 | 3.5 | 0.00 | 0.03 | 0.00 | 86 | 1018.6 |
| 20260906070033 | 63 | 50 | 0.0 | 2.6 | 0.00 | 0.03 | 0.00 | 86 | 1018.6 |
| 20260906064528 | 63 | 271 | 0.0 | 3.5 | 0.00 | 0.03 | 0.00 | 85 | 1018.6 |
| 20260906063031 | 64 | 61 | 0.9 | 3.5 | 0.00 | 0.03 | 0.00 | 84 | 1018.7 |
| 20260906061516 | 64 | 350 | 0.0 | 3.5 | 0.00 | 0.03 | 0.00 | 83 | 1018.7 |
| 20260906060035 | 64 | 61 | 0.0 | 1.7 | 0.00 | 0.03 | 0.00 | 83 | 1018.6 |
| 20260906054531 | 64 | 360 | 0.0 | 2.6 | 0.00 | 0.03 | 0.00 | 84 | 1018.5 |
| 20260906053031 | 65 | 38 | 0.0 | 0.9 | 0.00 | 0.03 | 0.00 | 84 | 1018.4 |
| 20260906051530 | 66 | 22 | 0.0 | 3.5 | 0.00 | 0.03 | 0.00 | 82 | 1018.3 |
| 20260906050037 | 66 | 86 | 0.0 | 3.5 | 0.00 | 0.03 | 0.00 | 82 | 1018.3 |
| 20260906044525 | 66 | 5 | 0.0 | 5.2 | 0.00 | 0.03 | 0.00 | 83 | 1018.2 |
| 20260906043038 | 67 | 15 | 0.0 | 3.5 | 0.00 | 0.03 | 0.00 | 83 | 1018.2 |
| 20260906041536 | 67 | 272 | 0.0 | 2.6 | 0.00 | 0.03 | 0.00 | 83 | 1017.8 |
| 20260906040035 | 68 | 82 | 0.9 | 2.6 | 0.00 | 0.03 | 0.00 | 85 | 1017.7 |
| 20260906034514 | 69 | 85 | 0.0 | 1.7 | 0.00 | 0.03 | 0.03 | 85 | 1017.6 |
| 20260906033025 | 70 | 348 | 0.0 | 2.6 | 0.00 | 0.03 | 0.03 | 84 | 1017.5 |
| 20260906031503 | 70 | 348 | 0.0 | 2.6 | 0.00 | 0.03 | 0.03 | 86 | 1017.5 |
| 20260906030018 | 69 | 348 | 0.0 | 1.7 | 0.00 | 0.03 | 0.03 | 91 | 1017.4 |
| 20260906024532 | 69 | 348 | 0.0 | 0.0 | 0.00 | 0.03 | 0.03 | 92 | 1017.4 |
| 20260906023011 | 69 | 348 | 0.0 | 0.0 | 0.00 | 0.03 | 0.03 | 92 | 1017.3 |
| 20260906021527 | 69 | 348 | 0.0 | 0.0 | 0.00 | 0.03 | 0.03 | 92 | 1017.0 |
| 20260906020035 | 70 | 348 | 0.0 | 0.9 | 0.00 | 0.03 | 0.03 | 92 | 1016.9 |
| 20260906014523 | 69 | 348 | 0.0 | 0.0 | 0.00 | 0.03 | 0.03 | 92 | 1016.9 |
| 20260906013027 | 69 | 348 | 0.0 | 0.0 | 0.00 | 0.03 | 0.03 | 92 | 1016.8 |
| 20260906011510 | 70 | 348 | 0.0 | 0.0 | 0.00 | 0.03 | 0.03 | 92 | 1016.6 |
| 20260906010024 | 70 | 348 | 0.0 | 0.0 | 0.00 | 0.03 | 0.03 | 91 | 1016.3 |
| 20260906004530 | 71 | 348 | 0.0 | 0.9 | 0.00 | 0.03 | 0.03 | 90 | 1016.2 |
| 20260906003014 | 71 | 348 | 0.0 | 0.9 | 0.00 | 0.03 | 0.03 | 90 | 1016.3 |
| 20260906001524 | 71 | 348 | 0.0 | 2.6 | 0.00 | 0.03 | 0.03 | 89 | 1016.1 |
| 20260906000030 | 72 | 360 | 4.3 | 10.4 | 0.00 | 0.03 | 0.03 | 88 | 1016.3 |
| 20260905234517 | 73 | 351 | 8.7 | 14.8 | 0.00 | 0.03 | 0.03 | 86 | 1016.4 |
| 20260905233032 | 73 | 342 | 9.6 | 13.9 | 0.00 | 0.03 | 0.03 | 86 | 1016.5 |
| 20260905231508 | 73 | 346 | 9.6 | 13.9 | 0.00 | 0.03 | 0.03 | 85 | 1016.5 |
| 20260905230022 | 73 | 352 | 9.6 | 15.6 | 0.00 | 0.03 | 0.03 | 85 | 1016.1 |
| 20260905224528 | 73 | 17 | 8.7 | 13.9 | 0.00 | 0.03 | 0.03 | 86 | 1016.4 |
| 20260905223013 | 74 | 351 | 8.7 | 13.9 | 0.00 | 0.03 | 0.03 | 83 | 1016.3 |
| 20260905221528 | 78 | 20 | 2.6 | 6.1 | 0.00 | 0.03 | 0.03 | 73 | 1016.1 |
| 20260905220033 | 78 | 38 | 1.7 | 6.1 | 0.00 | 0.03 | 0.03 | 72 | 1015.8 |
| 20260905214519 | 78 | 24 | 1.7 | 6.1 | 0.00 | 0.03 | 0.03 | 74 | 1015.7 |
| 20260905213028 | 77 | 13 | 1.7 | 8.7 | 0.00 | 0.03 | 0.03 | 75 | 1015.7 |
| 20260905211532 | 76 | 51 | 1.7 | 8.7 | 0.00 | 0.03 | 0.03 | 76 | 1015.8 |
| 20260905210022 | 77 | 26 | 3.5 | 10.4 | 0.00 | 0.03 | 0.03 | 77 | 1015.8 |
| 20260905204531 | 76 | 64 | 2.6 | 9.6 | 0.00 | 0.03 | 0.03 | 78 | 1015.7 |
| 20260905203014 | 75 | 55 | 1.7 | 9.6 | 0.00 | 0.03 | 0.03 | 80 | 1015.6 |
| 20260905201527 | 75 | 329 | 2.6 | 8.7 | 0.00 | 0.03 | 0.03 | 81 | 1015.7 |
| 20260905200032 | 74 | 351 | 0.0 | 9.6 | 0.00 | 0.03 | 0.03 | 85 | 1015.9 |
| 20260905194521 | 73 | 65 | 0.9 | 7.0 | 0.01 | 0.03 | 0.03 | 87 | 1016.0 |
| 20260905193034 | 72 | 88 | 0.9 | 7.0 | 0.01 | 0.03 | 0.03 | 88 | 1016.1 |
| 20260905191533 | 71 | 19 | 0.0 | 4.3 | 0.02 | 0.03 | 0.03 | 91 | 1016.2 |
| 20260905190030 | 70 | 59 | 2.6 | 5.2 | 0.03 | 0.03 | 0.03 | 92 | 1016.2 |
| 20260905184535 | 69 | 33 | 1.7 | 8.7 | 0.02 | 0.02 | 0.02 | 93 | 1016.3 |
| 20260905183007 | 69 | 9 | 0.9 | 8.7 | 0.02 | 0.02 | 0.02 | 93 | 1016.6 |
| 20260905181502 | 68 | 51 | 2.6 | 6.1 | 0.01 | 0.01 | 0.01 | 92 | 1016.7 |
| 20260905180000 | 69 | 360 | 1.7 | 3.5 | 0.00 | 0.00 | 0.00 | 92 | 1016.5 |
| 20260905174505 | 68 | 360 | 0.0 | 7.0 | 0.00 | 0.00 | 0.00 | 91 | 1016.6 |
| 20260905172959 | 69 | 82 | 0.9 | 7.8 | 0.00 | 0.00 | 0.00 | 90 | 1016.6 |
| 20260905171502 | 68 | 51 | 0.9 | 9.6 | 0.00 | 0.00 | 0.00 | 89 | 1016.5 |
| 20260905170008 | 69 | 11 | 0.9 | 7.8 | 0.00 | 0.00 | 0.00 | 88 | 1016.5 |
| 20260905164502 | 69 | 63 | 1.7 | 7.8 | 0.00 | 0.00 | 0.00 | 87 | 1016.4 |
| 20260905163003 | 69 | 88 | 0.9 | 7.8 | 0.00 | 0.00 | 0.00 | 87 | 1016.4 |
| 20260905161500 | 69 | 19 | 1.7 | 6.1 | 0.00 | 0.00 | 0.00 | 87 | 1016.2 |
| 20260905160001 | 70 | 50 | 2.6 | 7.8 | 0.00 | 0.00 | 0.00 | 85 | 1016.0 |
| 20260905154940 | 71 | 43 | 3.5 | 11.3 | 0.00 | 0.01 | 0.00 | 82 | 1015.9 |
| 20260905154931 | 71 | 67 | 3.5 | 9.6 | 0.00 | 0.03 | 0.00 | 82 | 1015.8 |
| 20260905154926 | 72 | 192 | 2.6 | 6.1 | 0.00 | 1.16 | 1.12 | 90 | 1014.7 |